TimeCDT,TemperatureF,Dew PointF,Humidity,Sea Level PressureIn,VisibilityMPH,Wind Direction,Wind SpeedMPH,Gust SpeedMPH,PrecipitationIn,Events,Conditions,WindDirDegrees,DateUTC
12:58 AM,44.1,39.0,82,30.16,10.0,Calm,Calm,-,N/A,,Clear,0,2013-10-27 05:58:00
1:58 AM,41.2,37.8,88,30.15,10.0,NNW,2.3,-,N/A,,Clear,330,2013-10-27 06:58:00
2:58 AM,41.2,37.6,87,30.14,10.0,Calm,Calm,-,N/A,,Clear,0,2013-10-27 07:58:00
3:58 AM,40.5,37.0,88,30.14,10.0,Calm,Calm,-,N/A,,Clear,0,2013-10-27 08:58:00
4:58 AM,40.6,37.4,88,30.14,10.0,Calm,Calm,-,N/A,,Clear,0,2013-10-27 09:58:00
5:58 AM,40.3,36.7,87,30.15,10.0,Calm,Calm,-,N/A,,Clear,0,2013-10-27 10:58:00
6:58 AM,40.8,37.6,88,30.16,10.0,Calm,Calm,-,N/A,,Clear,0,2013-10-27 11:58:00
7:58 AM,46.8,41.4,81,30.18,10.0,Calm,Calm,-,N/A,,Clear,0,2013-10-27 12:58:00
8:58 AM,59.9,41.2,50,30.19,10.0,ENE,1.2,-,N/A,,Clear,60,2013-10-27 13:58:00
9:58 AM,66.2,39.9,38,30.20,10.0,ESE,4.6,-,N/A,,Clear,110,2013-10-27 14:58:00
10:58 AM,69.4,39.9,34,30.20,10.0,Variable,3.5,-,N/A,,Clear,0,2013-10-27 15:58:00
11:58 AM,72.1,43.9,36,30.18,10.0,Variable,2.3,-,N/A,,Clear,0,2013-10-27 16:58:00
12:58 PM,73.4,45.5,37,30.15,10.0,SSE,2.3,-,N/A,,Clear,150,2013-10-27 17:58:00
1:58 PM,76.5,47.7,36,30.12,10.0,Variable,3.5,-,N/A,,Clear,0,2013-10-27 18:58:00
2:58 PM,76.5,48.9,38,30.12,10.0,South,3.5,-,N/A,,Clear,180,2013-10-27 19:58:00
3:58 PM,73.4,48.9,42,30.12,10.0,South,8.1,-,N/A,,Clear,170,2013-10-27 20:58:00
4:58 PM,71.1,49.1,46,30.13,10.0,South,5.8,-,N/A,,Clear,170,2013-10-27 21:58:00
5:58 PM,66.6,48.4,52,30.12,10.0,Calm,Calm,-,N/A,,Clear,0,2013-10-27 22:58:00
6:58 PM,62.4,49.6,63,30.13,10.0,South,4.6,-,N/A,,Scattered Clouds,190,2013-10-27 23:58:00
7:58 PM,60.6,50.5,69,30.15,10.0,Calm,Calm,-,N/A,,Clear,0,2013-10-28 00:58:00
8:58 PM,60.8,50.7,69,30.15,10.0,ENE,2.3,-,N/A,,Clear,60,2013-10-28 01:58:00
9:58 PM,59.5,51.1,74,30.14,10.0,Calm,Calm,-,N/A,,Clear,0,2013-10-28 02:58:00
10:08 PM,60.8,50.0,68,30.15,10.0,North,2.3,-,N/A,,Light Drizzle,360,2013-10-28 03:08:00
10:18 PM,59.0,50.0,72,30.14,10.0,Calm,Calm,-,N/A,,Partly Cloudy,0,2013-10-28 03:18:00
10:58 PM,57.9,50.9,77,30.16,10.0,Calm,Calm,-,0.00,,Mostly Cloudy,0,2013-10-28 03:58:00
11:58 PM,55.4,50.2,83,30.16,10.0,Calm,Calm,-,N/A,,Clear,0,2013-10-28 04:58:00